TimeEST,TemperatureF,Dew PointF,Humidity,Sea Level PressureIn,VisibilityMPH,Wind Direction,Wind SpeedMPH,Gust SpeedMPH,PrecipitationIn,Events,Conditions,WindDirDegrees,DateUTC
12:54 AM,10.9,-2.0,56,29.86,10.0,Variable,3.5,-,N/A,,Clear,0,2013-01-02 05:54:00
1:54 AM,12.9,-2.0,51,29.87,10.0,NW,10.4,23.0,N/A,,Mostly Cloudy,320,2013-01-02 06:54:00
2:54 AM,12.9,-2.0,51,29.86,10.0,NW,6.9,-,N/A,,Clear,310,2013-01-02 07:54:00
3:54 AM,12.0,-2.0,53,29.86,10.0,Variable,5.8,-,N/A,,Clear,0,2013-01-02 08:54:00
4:54 AM,14.0,-0.9,52,29.85,10.0,NNW,10.4,17.3,N/A,,Clear,340,2013-01-02 09:54:00
5:54 AM,12.0,-0.9,56,29.86,10.0,NW,4.6,-,N/A,,Clear,310,2013-01-02 10:54:00
7:54 AM,8.1,-0.0,70,29.86,10.0,SSW,5.8,-,N/A,,Overcast,210,2013-01-02 12:54:00
8:54 AM,12.9,3.0,65,29.86,10.0,WSW,5.8,-,0.00,,Overcast,240,2013-01-02 13:54:00
9:54 AM,16.0,5.0,62,29.88,10.0,Variable,3.5,-,0.00,,Overcast,0,2013-01-02 14:54:00
10:54 AM,19.9,3.9,50,29.87,10.0,West,6.9,-,N/A,,Partly Cloudy,280,2013-01-02 15:54:00
11:54 AM,21.0,1.0,42,29.87,10.0,West,13.8,24.2,N/A,,Clear,280,2013-01-02 16:54:00
12:54 PM,19.0,-0.9,42,29.88,10.0,WNW,16.1,35.7,N/A,,Mostly Cloudy,300,2013-01-02 17:54:00
1:54 PM,19.0,-0.9,42,29.89,10.0,NNW,21.9,28.8,N/A,,Clear,330,2013-01-02 18:54:00
2:54 PM,17.1,-2.9,41,29.90,10.0,West,11.5,25.3,N/A,,Clear,280,2013-01-02 19:54:00
3:54 PM,15.1,-5.1,41,29.94,10.0,WNW,17.3,26.5,N/A,,Clear,290,2013-01-02 20:54:00
4:54 PM,10.9,-6.0,47,30.00,10.0,Variable,6.9,21.9,N/A,,Clear,0,2013-01-02 21:54:00
5:54 PM,9.0,-7.1,48,30.03,10.0,West,6.9,-,N/A,,Clear,270,2013-01-02 22:54:00
6:54 PM,6.1,-8.0,53,30.04,10.0,WNW,3.5,-,N/A,,Clear,290,2013-01-02 23:54:00
7:54 PM,3.9,-11.0,50,30.05,10.0,West,5.8,-,N/A,,Clear,280,2013-01-03 00:54:00
8:54 PM,3.9,-11.9,48,30.05,10.0,West,6.9,-,N/A,,Clear,270,2013-01-03 01:54:00
9:54 PM,1.0,-13.0,52,30.05,10.0,Calm,Calm,-,N/A,,Clear,0,2013-01-03 02:54:00
10:54 PM,1.9,-11.9,52,30.06,10.0,Calm,Calm,-,N/A,,Clear,0,2013-01-03 03:54:00
11:54 PM,-5.1,-14.1,65,30.06,10.0,Calm,Calm,-,N/A,,Clear,0,2013-01-03 04:54:00